[[{"header":{"parameterUnit":"m.s-1","parameterCategory":1,"la1":30.2991,"la2":30.254,"lo1":-89.0895,"lo2":-89.0444,"dy":0.0017,"dx":0.0017,"nx":28,"ny":28,"refTime":"2023-09-03T09:00:00:Z","depth":0,"parameterNumber":2,"parameterNumberName":"U-component_of_WINDS"},"data":[0,0,0,0,0,0,0,0,0,0,0,0,0,0,0,0,0,0,0,0,0,0,0,0,0,0,0,0,0,0,0,0,0,0,0,0,0,0,0,0,0,0,0,0,0,0,0,0,0,0,0,0,0,0,0,0,0,0,-2.7668,-2.7667,0,-2.7606,-2.7606,-2.7605,-2.7503,-2.7501,-2.7499,-2.7497,-2.7435,-2.7435,-2.7435,0,0,0,0,0,0,0,0,0,0,0,0,0,-2.77,-2.77,-2.7668,-2.7667,-2.7666,-2.7606,-2.7605,-2.7605,-2.7503,-2.7501,-2.7498,-2.7496,-2.7435,-2.7435,-2.7435,0,0,0,0,0,0,0,0,0,0,0,0,0,-2.7667,-2.77,-2.7668,-2.7608,-2.7602,-2.7606,-2.7605,-2.7604,-2.7504,-2.7501,-2.7498,-2.7495,-2.7435,-2.7435,-2.7435,-2.7493,0,0,-2.7436,-2.7436,0,0,0,0,0,0,0,0,-2.7669,-2.7666,-2.7618,-2.7612,-2.7606,-2.7559,-2.7594,-2.7567,-2.7504,-2.7541,-2.7497,-2.7494,-2.7479,-2.7475,-2.747,-2.749,-2.7488,-2.7436,-2.7436,-2.7436,-2.7436,0,0,0,0,0,0,0,-2.7671,-2.7668,-2.7643,-2.7617,-2.761,-2.7585,-2.7578,-2.7588,-2.7527,-2.7538,-2.753,-2.7524,-2.7475,-2.747,-2.7468,-2.7487,-2.7436,-2.7436,-2.7436,-2.7436,-2.7554,-2.7557,0,0,0,0,0,0,-2.7682,-2.767,-2.7645,-2.7641,-2.7631,-2.7587,-2.7578,-2.7577,-2.7526,-2.7516,-2.7527,-2.752,-2.7471,-2.7468,-2.7465,-2.753,-2.7436,-2.7436,-2.7436,-2.7551,-2.7555,-2.7558,0,0,0,0,0,0,-2.7683,-2.7681,-2.7648,-2.7654,-2.7648,-2.759,-2.7589,-2.7577,-2.7572,-2.7518,-2.7506,-2.7533,-2.7469,-2.7465,-2.7487,-2.7527,-2.7436,-2.7436,-2.7548,-2.7552,-2.7557,-2.7661,0,0,0,0,0,0,-2.7684,-2.7682,-2.7702,-2.7655,-2.7648,-2.767,-2.7591,-2.7578,-2.7573,-2.7563,-2.752,-2.7511,-2.7466,-2.7488,-2.7488,-2.7525,-2.7437,-2.7544,-2.755,-2.7555,-2.7654,-2.7669,-2.7682,0,0,0,0,0,-2.7686,-2.7734,-2.7704,-2.7701,-2.7672,-2.7673,-2.7669,-2.7616,-2.7576,-2.7597,-2.7563,-2.7512,-2.7523,-2.7491,-2.749,-2.7528,-2.7541,-2.7548,-2.7555,-2.7648,-2.7666,-2.7681,0,0,0,0,0,0,-2.7786,-2.7726,-2.7692,-2.7726,-2.7705,-2.7655,-2.7679,-2.7637,-2.7627,-2.7618,-2.7554,-2.7545,-2.7577,-2.7555,-2.752,-2.7583,-2.7524,-2.7532,-2.7596,-2.7612,-2.7626,-2.763,-2.7437,0,0,0,0,0,-2.7812,-2.7817,-2.7765,-2.78,-2.7791,-2.7738,-2.7736,-2.7698,-2.7674,-2.7664,-2.7631,-2.7611,-2.761,-2.761,-2.7606,-2.7651,-2.7641,-2.7678,-2.7691,-2.7703,-2.7709,-2.7734,-2.775,-2.7581,-2.7581,-2.758,0,0,-2.7865,-2.7833,-2.784,-2.7819,-2.7798,-2.7806,-2.7731,-2.7741,-2.7747,-2.7666,-2.7685,-2.7661,-2.7634,-2.7669,-2.7683,-2.7652,-2.7755,-2.7712,-2.7721,-2.7721,-2.7743,-2.7759,-2.7773,-2.7585,-2.7584,-2.7584,0,0,-2.7966,-2.7943,-2.797,-2.7952,-2.7922,-2.7887,-2.7894,-2.7851,-2.7832,-2.7851,-2.7791,-2.7798,-2.7797,-2.778,-2.7772,-2.7872,-2.7826,-2.7873,-2.7944,-2.7969,-2.7982,-2.7994,-2.803,-2.8044,-2.788,-2.788,-2.788,0,-2.8036,-2.8045,-2.7989,-2.8004,-2.7998,-2.7926,-2.7954,-2.794,-2.791,-2.7908,-2.7874,-2.7873,-2.785,-2.7881,-2.7906,-2.7901,-2.7908,-2.7876,-2.7985,-2.7996,-2.8006,-2.804,-2.8053,-2.7886,-2.7885,-2.7885,-2.7884,0,-2.8133,-2.814,-2.8166,-2.8141,-2.8137,-2.8159,-2.8108,-2.8111,-2.8075,-2.8044,-2.8065,-2.8035,-2.8025,-2.803,-2.7993,-2.8057,-2.8039,-2.7996,-2.7935,-2.8028,-2.8059,-2.8072,-2.7894,-2.7892,-2.789,-2.7889,0,0,-2.8291,-2.8238,-2.8248,-2.8237,-2.8201,-2.8206,-2.8226,-2.8216,-2.8221,-2.8205,-2.822,-2.8223,-2.8184,-2.8175,-2.8137,-2.8159,-2.8242,-2.8113,-2.8112,-2.8139,-2.8312,-2.8344,-2.8359,-2.8212,-2.8215,-2.8216,-2.8314,0,-2.8385,-2.8414,-2.8367,-2.8408,-2.8415,-2.835,-2.8368,-2.8349,-2.8322,-2.8325,-2.8295,-2.8298,-2.8246,-2.824,-2.8259,-2.8228,-2.8276,-2.822,-2.8227,-2.8228,-2.8235,-2.8375,-2.8408,-2.8502,-2.8326,-2.8328,-2.8329,0,-2.8496,-2.8487,-2.8529,-2.8493,-2.8495,-2.8511,-2.85,-2.8503,-2.8482,-2.8461,-2.8453,-2.8409,-2.8427,-2.8371,-2.8396,-2.836,-2.836,-2.8346,-2.8349,-2.8346,-2.8283,-2.8377,-2.853,-2.8544,-2.8347,-2.8346,-2.8345,0,-2.8608,-2.8606,-2.8631,-2.8624,-2.8583,-2.8597,-2.858,-2.8556,-2.8554,-2.8545,-2.8543,-2.8537,-2.8533,-2.853,-2.8487,-2.8449,-2.8519,-2.8457,-2.8502,-2.8503,-2.8518,-2.8517,-2.8673,-2.852,-2.852,-2.852,-2.8519,0,-2.8717,-2.8745,-2.8682,-2.8697,-2.8728,-2.8675,-2.8707,-2.8685,-2.8664,-2.8675,-2.8619,-2.8631,-2.8573,-2.8579,-2.8545,-2.8573,-2.8572,-2.8556,-2.8546,-2.856,-2.8562,-2.8558,-2.8551,-2.8523,-2.8522,-2.8522,-2.8521,0,-2.8846,-2.8804,-2.8828,-2.8788,-2.8779,-2.8804,-2.8771,-2.8784,-2.8755,-2.877,-2.8771,-2.8725,-2.873,-2.8686,-2.8683,-2.866,-2.8704,-2.8683,-2.8711,-2.8704,-2.8751,-2.8748,-2.8909,-2.8928,-2.8764,-2.8766,-2.8767,0,-2.8917,-2.8937,-2.8901,-2.8905,-2.8892,-2.8898,-2.8897,-2.8847,-2.8848,-2.8827,-2.8844,-2.8844,-2.8841,-2.8853,-2.8819,-2.8817,-2.8796,-2.8853,-2.8795,-2.881,-2.8797,-2.8796,-2.8799,-2.8865,-2.8867,-2.8869,-2.887,0,-2.9048,-2.9027,-2.9027,-2.9021,-2.9022,-2.9014,-2.9003,-2.901,-2.8956,-2.896,-2.8965,-2.8963,-2.8961,-2.8962,-2.8955,-2.8939,-2.8896,-2.8889,-2.8899,-2.8913,-2.8928,-2.8921,-2.8743,-2.8885,-2.8883,-2.8882,-2.8882,-2.8881,-2.915,-2.9166,-2.9144,-2.9147,-2.9134,-2.9126,-2.9137,-2.9111,-2.9114,-2.9108,-2.9079,-2.9089,-2.907,-2.9055,-2.9044,-2.9053,-2.9025,-2.904,-2.9043,-2.9048,-2.9056,-2.8929,-2.9051,-2.9051,-2.905,-2.905,-2.9049,0,-2.9278,-2.9262,-2.9265,-2.9252,-2.9255,-2.9216,-2.9203,-2.9208,-2.9218,-2.9204,-2.9204,-2.9211,-2.9213,-2.9182,-2.9181,-2.9194,-2.9174,-2.9195,-2.9193,-2.9191,-2.9081,-2.9072,-2.9211,-2.9211,-2.9211,-2.9211,-2.9211,-2.9211,-2.9345,-2.9371,-2.9349,-2.9369,-2.9352,-2.9362,-2.9358,-2.9351,-2.934,-2.935,-2.9352,-2.9332,-2.9312,-2.931,-2.9311,-2.9302,-2.9304,-2.9332,-2.9316,-2.9214,-2.9198,-2.9183,-2.9174,-2.9333,-2.9333,-2.9425,-2.9426,-2.9427]},{"header":{"parameterUnit":"m.s-1","parameterCategory":1,"la1":30.2991,"la2":30.254,"lo1":-89.0895,"lo2":-89.0444,"dy":0.0017,"dx":0.0017,"nx":28,"ny":28,"refTime":"2023-09-03T09:00:00:Z","depth":0,"parameterNumber":3,"parameterNumberName":"V-component_of_WINDS"},"data":[0,0,0,0,0,0,0,0,0,0,0,0,0,0,0,0,0,0,0,0,0,0,0,0,0,0,0,0,0,0,0,0,0,0,0,0,0,0,0,0,0,0,0,0,0,0,0,0,0,0,0,0,0,0,0,0,0,0,-2.703,-2.703,0,-2.7046,-2.7046,-2.7046,-2.7014,-2.7013,-2.7011,-2.701,-2.7025,-2.7027,-2.7028,0,0,0,0,0,0,0,0,0,0,0,0,0,-2.6968,-2.6969,-2.703,-2.703,-2.703,-2.7046,-2.7046,-2.7046,-2.7014,-2.7012,-2.7011,-2.701,-2.7025,-2.7026,-2.7028,0,0,0,0,0,0,0,0,0,0,0,0,0,-2.6991,-2.697,-2.703,-2.7016,-2.7015,-2.7046,-2.7046,-2.7047,-2.7014,-2.7012,-2.7011,-2.7009,-2.7024,-2.7026,-2.7028,-2.7073,0,0,-2.7035,-2.7036,0,0,0,0,0,0,0,0,-2.6989,-2.6993,-2.7018,-2.7017,-2.7016,-2.7026,-2.703,-2.7055,-2.7014,-2.7014,-2.701,-2.7009,-2.7027,-2.7028,-2.7035,-2.7074,-2.7075,-2.7035,-2.7036,-2.7037,-2.7038,0,0,0,0,0,0,0,-2.6988,-2.6992,-2.7036,-2.7018,-2.7017,-2.7008,-2.7009,-2.7035,-2.7029,-2.7014,-2.7012,-2.7014,-2.7026,-2.7033,-2.7035,-2.7075,-2.7035,-2.7037,-2.7038,-2.7039,-2.7151,-2.7153,0,0,0,0,0,0,-2.6988,-2.6991,-2.7036,-2.7037,-2.6998,-2.701,-2.7012,-2.7024,-2.7029,-2.7028,-2.7016,-2.7013,-2.703,-2.7033,-2.7035,-2.7088,-2.7037,-2.7039,-2.704,-2.7149,-2.7152,-2.7153,0,0,0,0,0,0,-2.6987,-2.6993,-2.7035,-2.7013,-2.7018,-2.7013,-2.7027,-2.7026,-2.7033,-2.703,-2.7029,-2.7024,-2.7029,-2.7033,-2.7064,-2.7088,-2.704,-2.7042,-2.7147,-2.715,-2.7153,-2.7195,0,0,0,0,0,0,-2.6986,-2.6992,-2.701,-2.7014,-2.7019,-2.7064,-2.7029,-2.7027,-2.7037,-2.7033,-2.7038,-2.7037,-2.7028,-2.7061,-2.7066,-2.709,-2.7043,-2.7145,-2.7149,-2.7152,-2.7191,-2.7198,-2.7205,0,0,0,0,0,-2.6983,-2.7021,-2.7011,-2.7017,-2.7041,-2.7066,-2.7068,-2.7058,-2.7039,-2.7056,-2.7054,-2.7037,-2.7085,-2.7065,-2.707,-2.7095,-2.7144,-2.7148,-2.7151,-2.7188,-2.7197,-2.7204,0,0,0,0,0,0,-2.7019,-2.7021,-2.701,-2.705,-2.7058,-2.706,-2.7081,-2.7068,-2.7081,-2.7077,-2.7063,-2.7064,-2.7099,-2.71,-2.7078,-2.7139,-2.7111,-2.7116,-2.7137,-2.7145,-2.7152,-2.7151,-2.7045,0,0,0,0,0,-2.7032,-2.7052,-2.7052,-2.7087,-2.7092,-2.7086,-2.7096,-2.7088,-2.7095,-2.7098,-2.7099,-2.7106,-2.7123,-2.7134,-2.7149,-2.7191,-2.7191,-2.7211,-2.7218,-2.7223,-2.7228,-2.725,-2.7259,-2.7166,-2.7166,-2.7166,0,0,-2.7058,-2.7061,-2.7075,-2.7095,-2.71,-2.7121,-2.7089,-2.7112,-2.7128,-2.7101,-2.7132,-2.7132,-2.7139,-2.7176,-2.7193,-2.7179,-2.7254,-2.7228,-2.7233,-2.7234,-2.7255,-2.7264,-2.7271,-2.7169,-2.7168,-2.7168,0,0,-2.7116,-2.7121,-2.715,-2.7156,-2.7165,-2.7161,-2.7168,-2.7172,-2.7172,-2.7202,-2.7183,-2.72,-2.723,-2.7235,-2.7242,-2.7303,-2.7287,-2.7308,-2.7343,-2.7365,-2.7372,-2.7379,-2.74,-2.7408,-2.7313,-2.7313,-2.7313,0,-2.7147,-2.7178,-2.7167,-2.7192,-2.7201,-2.7179,-2.7209,-2.7215,-2.7228,-2.7234,-2.7218,-2.7255,-2.7258,-2.7296,-2.7311,-2.7317,-2.7325,-2.7307,-2.7372,-2.7379,-2.7384,-2.7405,-2.7413,-2.7315,-2.7315,-2.7315,-2.7315,0,-2.7216,-2.7238,-2.726,-2.7274,-2.7286,-2.7313,-2.7306,-2.7319,-2.7309,-2.7307,-2.7337,-2.7341,-2.7356,-2.7365,-2.7355,-2.7401,-2.7392,-2.7375,-2.7346,-2.7396,-2.7415,-2.7423,-2.7319,-2.7318,-2.7317,-2.7317,0,0,-2.7296,-2.7304,-2.7313,-2.7319,-2.7327,-2.7343,-2.7369,-2.7385,-2.7396,-2.7406,-2.7427,-2.7452,-2.7436,-2.7444,-2.7435,-2.7454,-2.7502,-2.7434,-2.7434,-2.7446,-2.7553,-2.7566,-2.7575,-2.7491,-2.7493,-2.7494,-2.7552,0,-2.7354,-2.74,-2.7391,-2.7435,-2.7455,-2.7434,-2.7457,-2.7464,-2.7462,-2.7478,-2.7476,-2.7494,-2.7471,-2.7476,-2.7494,-2.7492,-2.7523,-2.7488,-2.7511,-2.7511,-2.751,-2.7585,-2.7599,-2.7654,-2.7559,-2.7561,-2.7561,0,-2.7428,-2.7441,-2.7487,-2.7492,-2.75,-2.7521,-2.7534,-2.755,-2.7557,-2.7555,-2.7564,-2.7551,-2.7576,-2.7548,-2.7582,-2.7559,-2.7567,-2.7568,-2.757,-2.7571,-2.754,-2.7589,-2.7671,-2.7679,-2.7573,-2.7572,-2.7571,0,-2.7482,-2.7511,-2.7543,-2.7549,-2.7555,-2.757,-2.7573,-2.7579,-2.7589,-2.7601,-2.7607,-2.7621,-2.7629,-2.764,-2.7632,-2.7612,-2.7668,-2.7638,-2.7666,-2.7666,-2.7678,-2.7678,-2.7763,-2.7684,-2.7684,-2.7684,-2.7684,0,-2.7547,-2.7577,-2.7567,-2.7587,-2.7619,-2.7608,-2.764,-2.764,-2.7646,-2.7664,-2.7647,-2.7665,-2.7653,-2.7669,-2.7663,-2.7692,-2.7695,-2.7694,-2.7692,-2.7695,-2.7696,-2.7701,-2.7697,-2.7686,-2.7685,-2.7685,-2.7685,0,-2.7614,-2.7609,-2.7642,-2.7645,-2.7647,-2.767,-2.7673,-2.7691,-2.7688,-2.7712,-2.7716,-2.7712,-2.773,-2.7723,-2.7743,-2.7738,-2.7776,-2.7769,-2.7774,-2.7772,-2.78,-2.7797,-2.7892,-2.7903,-2.7817,-2.7818,-2.7818,0,-2.7656,-2.7678,-2.7684,-2.7696,-2.7701,-2.7719,-2.773,-2.772,-2.7731,-2.7741,-2.7758,-2.7775,-2.7788,-2.7819,-2.7817,-2.7832,-2.7825,-2.7857,-2.7827,-2.783,-2.7825,-2.7824,-2.7826,-2.7863,-2.7864,-2.7865,-2.7865,0,-2.7732,-2.7728,-2.7744,-2.776,-2.7773,-2.7784,-2.7794,-2.7804,-2.7794,-2.7808,-2.7827,-2.7838,-2.7858,-2.7876,-2.7889,-2.7891,-2.7877,-2.7875,-2.7882,-2.7886,-2.7888,-2.7888,-2.779,-2.7873,-2.7872,-2.7871,-2.7871,-2.7871,-2.7787,-2.7806,-2.7813,-2.7832,-2.7838,-2.7848,-2.7865,-2.7864,-2.788,-2.7897,-2.7889,-2.7911,-2.7918,-2.7934,-2.7939,-2.7955,-2.7943,-2.7953,-2.7956,-2.7959,-2.7962,-2.7886,-2.7958,-2.7957,-2.7957,-2.7957,-2.7957,0,-2.7862,-2.7866,-2.7883,-2.7898,-2.7912,-2.7898,-2.7908,-2.7921,-2.7941,-2.7948,-2.7962,-2.7984,-2.8,-2.8,-2.8015,-2.8029,-2.8022,-2.8033,-2.8032,-2.8033,-2.7973,-2.7965,-2.8038,-2.8038,-2.8038,-2.8038,-2.8038,-2.8038,-2.7903,-2.7934,-2.7931,-2.7965,-2.7968,-2.7991,-2.7998,-2.8006,-2.8012,-2.8038,-2.8052,-2.8051,-2.8055,-2.807,-2.8085,-2.8084,-2.8091,-2.8104,-2.8101,-2.8045,-2.8037,-2.8029,-2.8022,-2.8105,-2.8105,-2.8159,-2.816,-2.816]}]]